Change the Weather History Date:

Friday, August 23, 2013

  Actual Average Record
Temperature  
Mean Temperature 93 °F 94 °F  
Max Temperature 104 °F 106 °F 115 °F (2011)
Min Temperature 81 °F 82 °F 63 °F (1968)
Degree Days  
Heating Degree Days 0 0  
Month to date heating degree days 0 0  
Since 1 June heating degree days 0 0  
Since 1 July heating degree days 0 0  
Cooling Degree Days 28 29  
Month to date cooling degree days 689 679  
Year to date cooling degree days 3501 3225  
Since 1 June cooling degree days 2440 2313  
Growing Degree Days 42 (Base 50)    
Moisture  
Dew Point 66 °F    
Average Humidity 45    
Maximum Humidity 65    
Minimum Humidity 25    
Precipitation  
Precipitation 0.00 in 0.02 in 1.36 in (1921)
Month to date precipitation T 0.36  
Year to date precipitation 1.58 1.98  
Sea Level Pressure  
Sea Level Pressure 29.73 in    
Wind  
Wind Speed 9 mph (SE)    
Max Wind Speed 17 mph    
Max Gust Speed 22 mph    
Visibility 10 miles    
Events      
T = Trace of Precipitation, MM = Missing Value Source: NWS Daily Summary

Daily Weather History Graph

Daily Weather History Graph

Search for Another Location

Airport or City:

Trip Planner

Search our weather history database for the weather conditions in past years. The results will help you decide how hot, cold, wet, or windy it might be!

Date:

Astronomy

Aug. 23, 2013 Rise Set
Actual Time 6:07 AM MST 7:13 PM MST
Civil Twilight 5:42 AM MST 7:39 PM MST
Nautical Twilight 5:11 AM MST 8:09 PM MST
Astronomical Twilight 4:40 AM MST 8:40 PM MST
Moon 8:49 PM MST (8/23) 8:54 AM MST (8/23)
Length of Visible Light 13h 57m
Length of Day
13h 06m
Waning Gibbous, 91% of the Moon is Illuminated
Aug 23
Waning Gibbous
Aug 28
Last Quarter
Sep 5
New
Sep 12
First Quarter
Sep 19
Full

Hourly Weather History & Observations

Time (MST) Temp. Heat Index Dew Point Humidity Pressure Visibility Wind Dir Wind Speed Gust Speed Precip Events Conditions
12:57 AM 82.9 °F 86.5 °F 69.1 °F 63% 29.76 in 10.0 mi North 6.9 mph - N/A   Scattered Clouds
1:57 AM 82.9 °F 86.5 °F 69.1 °F 63% 29.75 in 10.0 mi ENE 8.1 mph - N/A   Mostly Cloudy
2:57 AM 82.9 °F 87.0 °F 70.0 °F 65% 29.75 in 10.0 mi ENE 4.6 mph - N/A   Mostly Cloudy
3:57 AM 82.0 °F 85.9 °F 70.0 °F 67% 29.75 in 10.0 mi NNE 8.1 mph - N/A   Scattered Clouds
4:57 AM 82.9 °F 86.5 °F 69.1 °F 63% 29.75 in 10.0 mi NE 12.7 mph - N/A   Scattered Clouds
5:57 AM 82.0 °F 85.5 °F 69.1 °F 65% 29.76 in 10.0 mi NNE 11.5 mph - N/A   Mostly Cloudy
6:57 AM 82.9 °F 86.5 °F 69.1 °F 63% 29.77 in 10.0 mi NE 6.9 mph - N/A   Mostly Cloudy
7:57 AM 87.1 °F 91.3 °F 69.1 °F 55% 29.79 in 10.0 mi NNE 8.1 mph - N/A   Mostly Cloudy
8:57 AM 93.0 °F 95.0 °F 64.9 °F 39% 29.79 in 10.0 mi East 6.9 mph - N/A   Scattered Clouds
9:57 AM 93.9 °F 96.1 °F 64.9 °F 38% 29.79 in 10.0 mi South 6.9 mph - N/A   Scattered Clouds
10:57 AM 97.0 °F 99.3 °F 64.0 °F 34% 29.79 in 10.0 mi SSE 9.2 mph - N/A   Scattered Clouds
11:57 AM 100.0 °F 100.7 °F 60.1 °F 27% 29.77 in 10.0 mi SSE 12.7 mph 18.4 mph N/A   Scattered Clouds
12:57 PM 102.0 °F 103.3 °F 61.0 °F 26% 29.74 in 10.0 mi South 12.7 mph 18.4 mph N/A   Scattered Clouds
1:57 PM 102.0 °F 104.6 °F 63.0 °F 28% 29.72 in 10.0 mi South 9.2 mph - N/A   Scattered Clouds
2:57 PM 102.0 °F 107.3 °F 66.9 °F 32% 29.70 in 10.0 mi South 10.4 mph - N/A   Mostly Cloudy
3:57 PM 102.0 °F 106.6 °F 66.0 °F 31% 29.66 in 10.0 mi South 11.5 mph - N/A   Mostly Cloudy
4:57 PM 100.9 °F 104.6 °F 64.9 °F 31% 29.64 in 10.0 mi South 11.5 mph - N/A   Mostly Cloudy
5:57 PM 100.9 °F 102.7 °F 62.1 °F 28% 29.64 in 10.0 mi SSW 9.2 mph - N/A   Mostly Cloudy
6:57 PM 100.0 °F 101.2 °F 61.0 °F 28% 29.64 in 10.0 mi SSW 6.9 mph - N/A   Mostly Cloudy
7:57 PM 99.0 °F 99.5 °F 61.0 °F 28% 29.65 in 10.0 mi South 5.8 mph - N/A   Mostly Cloudy
8:57 PM 96.1 °F 97.3 °F 63.0 °F 33% 29.67 in 10.0 mi South 5.8 mph - N/A   Mostly Cloudy
9:57 PM 93.0 °F 95.0 °F 64.9 °F 39% 29.70 in 10.0 mi South 11.5 mph - N/A   Scattered Clouds
10:57 PM 89.1 °F 93.7 °F 69.1 °F 52% 29.71 in 10.0 mi SSW 9.2 mph - N/A   Partly Cloudy
11:57 PM 88.0 °F 92.9 °F 70.0 °F 55% 29.72 in 10.0 mi South 10.4 mph - N/A   Partly Cloudy